Tracking 21611 objects as of 21-Oct-2020
HD Live streaming from Space Station
objects crossing your sky now

USA 118

Track USA 118 now!
USA 118 is classified as:


NORAD ID: 23855
Int'l Code: 1996-026A
Perigee: 34,168.7 km
Apogee: 37,419.8 km
Inclination: 9.1 °
Period: 1,436.1 minutes
Semi major axis: 42165 km
RCS: Unknown
Launch date: April 24, 1996
Source: United States (US)
Launch site: AIR FORCE EASTERN TEST RANGE (AFETR)

In the $1 billion range; ELINT; signals intelligence.
aabbcc
Your satellite tracking list
Your tracking list is empty




NASA's NSSDC Master Catalog

Two Line Element Set (TLE):
1 23855U 96026A   20073.36777494 0.00000000  00000-0  00000-0 0    08
2 23855   9.1038 355.8459 0385517 265.8881  89.7135  1.00270000    05
Source of the keplerian elements: McCants